Theta_e
301 293 289 291 294 296 298 296 294 294 294 291 288 288 289 292 294 294 293 294 293 293 296 296 296 296 297 297 298 299 301 303 309 323 323 317 312 310 308 306 305 303 304 305
296 291 293 295 296 295 297 296 295 299 297 292 289 287 289 290 290 291 293 293 292 293 293 293 293 293 293 293 295 295 297 299 303 309 312 312 308 305 303 303 301 300 299 300
288 291 296 294 293 293 294 295 293 295 298 296 293 291 289 289 290 291 291 292 292 291 292 292 291 290 291 291 292 293 294 296 298 302 304 302 300 298 297 297 298 298 297 298
291 294 294 292 292 294 290 296 296 295 294 287 294 284 291 287 287 288 289 289 290 291 291 291 290 290 290 290 291 292 293 293 295 296 296 295 293 292 293 295 296 296 296 295
287 289 291 290 292 295 292 296 297 296 293 290 290 287 289 290 287 286 289 290 290 291 291 290 291 291 291 291 291 292 292 292 292 293 294 293 292 293 293 293 293 293 294 294
289 293 292 293 295 296 298 295 294 293 291 284 289 289 284 288 290 288 290 290 291 291 291 291 291 291 290 290 291 291 291 291 291 290 291 291 290 290 290 290 290 290 291 291
288 288 290 293 291 296 296 291 282 281 281 280 286 288 285 291 294 290 289 289 291 291 290 290 289 289 289 290 290 291 290 289 290 289 289 289 289 288 287 287 287 287 288 288
282 280 289 292 292 291 293 292 283 276 278 279 286 283 284 286 292 291 292 291 291 290 290 289 289 288 288 288 287 287 288 287 288 287 286 287 287 287 287 286 286 286 286 287
282 282 289 290 292 295 292 289 290 282 279 280 283 280 284 285 286 288 288 288 288 288 288 288 287 287 287 286 286 286 286 287 286 286 285 285 285 285 284 284 285 284 285 287
287 281 287 288 292 294 292 294 285 282 275 275 278 277 279 281 283 286 286 287 288 288 288 287 285 285 286 285 285 285 285 285 285 285 284 284 283 283 283 283 282 282 283 285
290 285 286 287 284 287 289 287 287 286 283 277 274 278 283 284 285 285 286 287 287 287 287 286 286 285 285 284 284 284 284 284 284 284 283 282 282 282 282 281 281 281 282 283
291 287 281 282 284 287 289 286 287 280 278 280 280 278 284 287 287 287 286 287 288 288 287 286 285 284 284 283 283 283 282 282 283 283 282 281 281 281 280 280 280 281 280 282
290 285 278 281 284 286 284 286 287 286 284 280 277 278 283 287 285 286 286 287 287 286 285 285 285 284 283 283 282 282 282 282 282 281 281 280 279 279 279 279 280 280 280 280
290 283 281 273 278 281 282 284 285 284 278 279 280 278 279 282 283 284 285 286 287 286 286 285 285 284 284 283 282 281 281 281 281 281 280 279 279 278 278 279 279 279 279 279
286 271 280 280 281 281 283 283 284 281 282 279 281 279 281 282 284 284 285 286 286 285 285 285 285 284 283 282 282 281 281 281 280 280 279 278 278 278 279 279 279 279 279 278
287 278 278 277 281 284 283 286 285 284 282 280 279 279 282 283 283 282 284 285 285 285 285 285 286 285 284 283 281 281 280 280 280 279 278 278 278 278 278 278 278 278 278 277
283 281 277 275 276 277 278 278 282 282 282 281 278 282 282 280 283 283 283 284 284 284 284 285 286 285 284 282 282 280 279 280 278 278 278 277 277 277 278 277 277 276 275 276
281 277 272 275 274 269 277 277 276 280 281 282 282 282 282 282 282 282 283 284 283 284 284 284 284 283 282 280 279 278 279 278 278 277 276 276 276 276 277 276 276 274 274 274
281 277 267 271 261 270 274 276 278 279 280 282 281 280 279 280 281 279 282 283 284 284 284 283 283 282 280 279 278 277 277 277 276 276 275 275 275 276 275 275 274 273 274 274
279 276 272 260 263 263 274 275 277 280 275 281 281 279 279 281 278 278 282 283 283 283 283 282 281 280 279 278 277 276 276 275 274 275 275 275 275 275 274 273 273 273 273 273
264 265 265 260 260 266 275 278 278 273 277 280 281 281 280 281 282 281 283 282 282 282 282 281 279 279 278 277 275 275 275 274 275 275 274 274 274 273 273 272 271 271 270 271
267 265 261 256 261 266 277 277 277 280 279 280 280 281 280 280 280 281 281 282 282 281 281 280 278 278 277 276 275 274 274 275 274 273 273 271 270 271 272 267 267 266 266 266
267 272 268 271 272 278 278 279 280 281 280 280 280 281 281 280 280 280 280 280 280 280 280 280 278 277 276 275 274 274 274 273 272 270 268 267 267 269 269 264 265 265 265 264
273 275 271 273 275 277 280 279 280 281 280 281 281 281 280 280 280 280 280 280 280 279 279 277 275 274 275 273 273 273 272 271 268 267 267 268 266 266 266 268 268 265 264 264
274 274 272 271 276 276 278 279 281 281 281 281 280 281 280 280 279 280 279 279 279 279 278 276 275 274 274 271 271 269 270 269 268 267 267 267 267 265 266 267 266 267 268 268
275 274 272 272 277 277 277 279 281 280 280 281 280 279 279 280 280 279 279 279 278 278 276 273 272 271 272 268 269 268 267 268 267 267 267 267 266 264 265 264 264 270 272 273
Wind_Speed
2 4 14 9 8 4 14 6 8 3 4 9 7 10 7 6 9 9 6 7 7 7 6 8 9 9 10 12 12 13 12 12 8 6 7 6 8 7 8 9 14 13 12 12
3 15 4 5 3 3 14 17 11 3 7 11 7 8 6 6 4 4 5 7 7 5 9 9 10 11 11 10 10 12 13 12 10 7 5 5 6 7 7 7 11 12 12 13
6 1 9 8 5 7 8 17 14 11 5 7 5 3 2 3 5 6 5 5 6 6 6 8 9 9 9 12 11 11 12 13 12 11 7 5 5 5 5 7 8 10 12 11
7 4 9 6 12 8 9 6 13 17 16 4 9 4 6 4 4 3 5 5 5 5 5 6 7 9 9 9 7 10 12 13 12 12 11 12 8 6 4 4 5 7 10 11
5 5 6 12 17 8 5 9 15 16 11 8 11 3 4 12 6 6 6 7 6 5 5 6 7 8 8 8 9 9 12 14 12 12 11 8 9 5 4 5 7 8 8 11
7 2 6 7 4 8 7 10 9 6 2 6 12 10 5 12 18 9 10 10 9 7 6 5 6 7 7 6 9 10 12 12 11 12 12 11 10 8 7 7 6 6 6 7
2 5 2 4 5 4 7 12 3 5 5 5 5 9 6 12 9 15 15 11 11 10 7 6 6 6 7 9 8 9 10 11 10 11 11 10 9 8 8 7 6 7 6 6
5 6 8 5 6 7 15 12 6 8 6 5 2 9 4 3 7 13 12 13 10 9 7 7 6 6 7 8 8 7 8 8 8 9 9 7 9 6 6 6 5 5 5 5
7 4 2 2 2 5 7 10 4 6 5 4 4 4 2 3 10 13 14 12 10 10 8 8 7 6 6 7 6 6 6 7 8 7 7 8 7 8 6 7 5 4 5 6
1 3 2 2 2 3 3 8 3 2 8 5 2 4 5 10 12 14 15 14 12 9 9 7 6 6 6 6 6 6 6 6 6 6 5 6 5 5 5 5 5 5 4 5
2 3 3 4 5 9 3 5 5 2 1 5 4 7 6 17 17 17 14 12 12 10 9 8 6 6 5 5 5 5 5 5 5 5 5 4 4 4 4 4 5 5 5 6
5 1 1 3 2 1 4 6 4 3 4 2 1 3 3 10 14 14 12 12 10 10 9 7 7 7 6 5 5 5 4 5 4 4 4 4 5 4 4 5 5 5 6 5
4 3 4 0 3 2 3 6 6 7 4 2 3 3 6 11 11 11 15 12 11 10 8 7 6 5 5 5 5 4 4 4 4 4 4 4 5 5 5 5 5 5 5 5
2 1 1 4 1 1 4 4 5 6 5 6 5 3 1 9 14 13 12 12 11 11 10 7 6 6 5 4 5 4 3 3 3 4 4 4 4 3 3 4 4 5 5 5
2 4 3 2 2 3 3 5 7 4 5 7 7 9 14 17 18 15 12 11 12 11 9 8 7 6 5 5 4 3 2 2 2 2 2 2 2 2 3 3 3 4 4 5
1 2 1 2 5 3 3 4 3 5 5 5 6 3 4 7 8 10 14 14 13 11 10 8 7 7 7 5 4 3 2 2 1 1 2 1 2 2 2 3 3 4 4 4
1 4 3 2 3 2 3 4 3 2 3 8 6 7 10 7 14 16 14 13 12 11 10 9 9 7 6 6 5 4 3 3 3 4 3 2 2 2 2 3 3 3 4 4
1 1 3 3 3 1 3 3 1 2 1 3 2 4 11 9 5 7 7 12 10 10 9 8 6 5 4 3 4 3 4 4 5 4 4 3 2 3 2 3 3 3 3 5
1 4 4 5 2 5 2 4 4 3 4 4 5 5 5 6 6 3 5 6 9 9 8 6 5 5 5 6 5 5 5 6 5 5 4 4 4 3 3 4 4 3 3 4
4 7 5 4 6 4 4 1 2 2 5 6 8 8 11 7 7 5 7 7 7 7 7 7 7 4 6 6 6 6 6 5 6 6 6 5 4 4 4 4 3 1 3 5
4 5 4 2 1 8 6 3 1 8 7 4 7 9 10 8 4 7 8 5 6 6 8 6 6 6 7 6 6 6 6 7 6 5 5 5 5 4 4 3 1 2 3 4
3 4 2 3 4 6 6 3 8 5 1 4 6 7 7 6 6 7 8 8 8 8 6 6 6 7 6 6 6 6 8 6 6 5 5 4 3 3 2 2 2 2 3 3
2 6 4 8 7 3 5 3 3 2 3 4 6 5 7 8 5 9 7 7 7 7 6 6 7 7 6 6 7 8 6 5 5 3 3 3 3 3 2 2 3 2 2 2
4 2 2 4 2 7 6 5 4 4 3 3 4 6 9 8 7 7 6 6 7 6 7 4 6 7 7 7 7 8 4 3 4 5 5 4 4 3 2 1 2 2 2 2
4 5 3 6 8 5 8 7 5 4 2 4 4 7 9 8 7 7 6 6 7 7 6 5 7 7 8 5 6 5 5 5 5 5 5 4 3 3 2 3 3 3 4 5
8 9 7 8 8 6 6 8 10 9 8 7 7 5 5 7 9 6 6 6 6 7 5 4 6 5 7 5 7 6 5 7 6 6 4 4 3 2 2 2 4 8 10 10
Wind_Direction
211 169 207 180 222 149 182 197 104 90 155 73 71 85 65 43 66 76 74 78 65 43 17 35 30 24 27 25 25 19 24 12 29 61 90 72 65 53 49 43 36 33 29 29
160 229 178 160 222 185 169 191 200 90 69 86 92 71 63 59 56 74 89 77 67 53 41 31 29 24 27 32 26 29 31 23 30 39 57 68 80 62 58 44 41 34 31 31
216 281 170 186 188 192 190 186 175 180 136 40 111 32 104 55 90 81 65 82 75 63 56 42 37 26 28 30 20 35 37 39 35 38 55 61 55 46 41 33 33 29 31 29
240 259 191 174 214 192 203 172 149 144 164 175 165 218 235 173 141 116 113 87 92 83 62 47 42 38 30 22 22 43 49 48 42 44 64 61 63 61 21 29 24 28 29 28
221 189 186 211 206 182 219 141 152 164 158 126 192 206 222 163 197 196 168 139 122 96 85 68 64 59 42 21 29 41 51 51 46 53 58 68 67 53 36 30 31 27 29 27
224 189 180 195 162 181 147 84 47 52 88 211 183 194 208 191 202 160 163 154 141 121 92 78 68 63 53 33 42 43 50 47 43 48 49 56 58 52 42 33 34 22 18 21
234 207 251 149 139 154 142 139 131 194 205 219 176 202 245 203 191 175 160 161 149 132 122 101 81 69 60 56 43 56 49 48 42 49 46 41 53 53 51 34 30 21 17 18
189 196 177 180 202 193 190 174 161 185 183 149 111 211 238 285 156 150 154 144 137 127 130 122 107 92 83 69 53 53 52 53 42 50 52 41 40 48 49 35 30 27 14 13
179 250 355 202 177 166 174 201 98 88 1 83 185 319 299 106 126 137 143 146 145 140 140 128 112 102 85 71 64 61 64 63 51 48 45 40 34 37 37 30 24 22 10 16
212 219 237 214 129 57 212 130 140 278 157 193 220 254 227 169 164 157 161 160 153 144 138 131 125 116 98 90 80 71 65 67 61 54 50 54 37 34 26 27 19 12 11 6
195 209 174 124 191 169 183 162 139 88 315 153 147 246 199 181 178 169 164 159 154 152 149 144 134 116 109 102 92 86 73 76 68 62 61 57 41 31 34 39 22 11 5 13
181 192 241 175 317 89 158 152 140 179 182 31 56 272 355 186 169 161 159 154 152 155 154 148 142 137 129 122 110 103 84 79 73 73 68 56 44 28 33 29 18 14 13 8
144 220 137 336 9 17 207 162 144 121 33 165 116 254 348 150 151 165 158 158 150 149 147 145 140 148 151 145 135 122 103 93 82 77 66 48 32 26 22 15 5 12 10 11
232 88 180 189 158 17 180 165 153 141 130 156 244 169 196 166 167 163 158 153 152 159 161 158 156 165 164 160 157 150 118 84 72 65 54 37 21 13 18 14 13 11 4 9
83 131 119 354 79 300 212 157 147 128 157 154 205 190 197 186 175 166 151 149 154 165 169 169 169 173 178 176 164 132 112 82 66 77 64 13 343 360 12 16 10 0 5 1
127 116 109 61 3 265 109 99 118 124 120 83 117 255 177 131 118 150 164 162 169 172 174 174 175 178 186 189 181 169 183 200 137 181 221 269 334 325 349 359 356 357 347 326
172 179 142 101 328 353 60 225 204 165 165 143 167 209 152 146 174 176 167 168 170 172 173 177 186 188 185 185 178 195 201 189 206 216 224 241 256 279 328 342 345 344 330 328
117 62 45 103 19 87 253 315 249 278 54 162 113 174 180 170 114 121 156 164 166 166 175 189 182 170 174 160 168 161 189 208 222 225 233 230 249 282 297 308 317 321 325 332
269 154 81 124 160 286 324 196 170 149 268 183 141 113 100 112 76 45 159 164 173 180 180 179 156 165 168 181 187 193 208 215 222 236 249 243 235 251 266 274 304 322 316 309
11 43 96 46 106 181 260 270 245 139 314 184 141 153 147 130 155 230 177 167 171 164 147 160 165 154 172 198 185 198 224 226 238 234 231 225 229 235 251 269 292 280 308 317
4 5 108 119 159 284 238 220 255 92 235 159 163 164 162 171 189 159 151 141 149 158 165 155 167 190 209 192 184 216 223 231 233 224 212 219 225 233 250 264 245 273 303 315
168 117 210 82 58 297 173 76 165 213 165 185 161 178 161 123 119 129 143 153 162 170 168 174 185 215 214 196 185 223 232 231 216 205 215 215 210 243 243 218 271 297 294 298
280 184 191 178 213 249 214 218 237 173 174 203 165 150 147 133 155 158 173 172 184 190 196 194 203 224 217 207 198 227 236 211 201 176 215 224 242 241 227 210 256 284 280 290
264 173 215 41 237 223 230 227 253 214 230 162 167 157 157 161 159 166 153 185 198 203 208 194 194 226 235 216 215 226 209 179 161 209 228 227 228 248 237 244 232 228 250 259
202 132 188 276 277 301 251 227 210 210 174 145 140 170 179 155 175 166 189 204 211 209 204 193 208 225 240 213 229 218 203 175 199 215 224 226 208 215 237 239 230 248 219 224
184 183 176 217 218 181 237 206 182 188 197 189 159 147 167 174 180 175 209 214 207 213 209 214 225 231 246 220 234 223 195 184 197 222 221 218 206 211 227 239 274 270 273 283